Flag for Germany Weather past 2 weeks in Konstanz, Baden-Württemberg, Germany

Now
65 °F

Clear.


Feels Like: 65 °F
Forecast: 61 / 84 °F
Wind: 1 mph from Northwest

Location: Konstanz

Current Time: Aug 4, 2015 at 3:37:28 AM

Latest Report: Aug 4, 2015 at 3:00 AM


Visibility: 25 mi

Pressure: 29.97 "Hg

Humidity: 83%

Dew point: 60 °F

Location of KonstanzLocation

Historic Weather in Konstanz — Graph

°F

Konstanz temperature yesterday

Maximum temperature yesterday: 86 °F (at 5:00 PM)
Minimum temperature yesterday: 60 °F (at 6:00 AM)
Average temperature yesterday: 73 °F

Past Weeks' High & Low Weather Summary

 TemperatureHumidityPressure
High95 °F (Jul 22, 5:00 PM)97% (Jul 30, 7:00 AM)30.11 "Hg (Jul 30, 7:00 AM)
Low51 °F (Jul 30, 5:00 AM)22% (Jul 22, 5:00 PM)29.66 "Hg (Jul 24, 7:00 PM)
Average69 °F63%29.93 "Hg
* Reported Jul 20 2:00 AM — Aug 4 2:00 AM, Konstanz, Weather by CustomWeather, © 2015

Note: Actual official high and low records may vary slightly from our data, if they occured in-between our weather recording intervals... More about our weather records

Advertising

Konstanz weather history for previous 24 hours

 ConditionsComfort  
Time TempWeatherWind HumidityBarometerVisibility
2:00 AM
Tue, Aug 4
67 °FClear.2 mph81%29.96 "Hg28 mi
1:00 AM69 °FClear.2 mph75%29.97 "Hg25 mi
11:00 PM
Mon, Aug 3
73 °FClear.2 mph68%29.96 "Hg28 mi
10:00 PM77 °FClear.2 mph55%29.95 "Hg31 mi
9:00 PM78 °FClear.1 mph54%29.95 "Hg43 mi
8:00 PM84 °FSunny.2 mph42%29.93 "Hg37 mi
7:00 PM86 °FSunny.2 mph37%29.93 "Hg28 mi
6:00 PM86 °FPassing clouds.3 mph38%29.94 "Hg28 mi
5:00 PM86 °FPassing clouds.3 mph37%29.95 "Hg28 mi
4:00 PM84 °FPassing clouds.3 mph42%29.97 "Hg28 mi
3:00 PM84 °FPassing clouds.2 mph45%29.98 "Hg28 mi
2:00 PM81 °FPassing clouds.2 mph52%30.01 "Hg28 mi
1:00 PM78 °FPassing clouds.2 mph53%30.02 "Hg28 mi
12:00 PM76 °FPassing clouds.2 mph56%30.04 "Hg25 mi
11:00 AM74 °FSunny.1 mph57%30.06 "Hg25 mi
10:00 AM70 °FPassing clouds.2 mph62%30.06 "Hg22 mi
9:00 AM68 °FPassing clouds.1 mph68%30.07 "Hg19 mi
8:00 AM62 °FPassing clouds.1 mph80%30.08 "Hg17 mi
7:00 AM60 °FPassing clouds.1 mph87%30.07 "Hg14 mi
6:00 AM60 °FPassing clouds.2 mph88%30.06 "Hg16 mi
5:00 AM60 °FClear.1 mph85%30.05 "Hg18 mi
4:00 AM61 °FClear.1 mph83%30.05 "Hg22 mi
3:00 AM62 °FClear.1 mph78%30.05 "Hg25 mi
Weather by CustomWeather, © 2015

See weather overviewHow to use our weather pages